TimeEDT,TemperatureF,Dew PointF,Humidity,Sea Level PressureIn,VisibilityMPH,Wind Direction,Wind SpeedMPH,Gust SpeedMPH,PrecipitationIn,Events,Conditions,WindDirDegrees,DateUTC
12:35 AM,55.4,45.5,69,30.06,10.0,SSE,4.6,-,N/A,,Scattered Clouds,160,2012-10-22 04:35:00
12:55 AM,55.0,45.3,70,30.06,10.0,SSE,4.6,-,N/A,,Clear,160,2012-10-22 04:55:00
1:15 AM,54.7,45.5,71,30.06,10.0,SSE,4.6,-,N/A,,Scattered Clouds,160,2012-10-22 05:15:00
1:35 AM,54.5,45.5,72,30.05,10.0,SSE,4.6,-,N/A,,Clear,160,2012-10-22 05:35:00
1:55 AM,53.2,45.0,73,30.05,10.0,SSE,4.6,-,N/A,,Clear,150,2012-10-22 05:55:00
2:35 AM,53.1,45.1,74,30.05,10.0,SSE,4.6,-,N/A,,Clear,160,2012-10-22 06:35:00
2:55 AM,53.6,45.5,74,30.06,10.0,SSE,3.5,-,N/A,,Clear,150,2012-10-22 06:55:00
3:55 AM,52.2,45.0,76,30.05,10.0,SE,3.5,-,N/A,,Clear,140,2012-10-22 07:55:00
4:15 AM,52.2,45.0,76,30.05,10.0,Calm,Calm,-,N/A,,Clear,0,2012-10-22 08:15:00
4:55 AM,51.8,45.7,80,30.05,10.0,SSE,4.6,-,N/A,,Overcast,150,2012-10-22 08:55:00
5:15 AM,53.4,46.9,79,30.05,10.0,SSE,4.6,-,N/A,,Overcast,150,2012-10-22 09:15:00
5:35 AM,54.7,47.3,76,30.05,10.0,SSE,4.6,-,N/A,,Overcast,150,2012-10-22 09:35:00
5:55 AM,53.8,46.4,76,30.05,10.0,SSE,4.6,-,N/A,,Mostly Cloudy,160,2012-10-22 09:55:00
6:15 AM,53.1,46.0,77,30.05,10.0,SSE,4.6,-,N/A,,Mostly Cloudy,160,2012-10-22 10:15:00
6:35 AM,53.2,46.4,78,30.05,10.0,SSE,4.6,-,N/A,,Mostly Cloudy,150,2012-10-22 10:35:00
6:55 AM,54.0,47.3,78,30.05,10.0,SSE,4.6,-,N/A,,Mostly Cloudy,150,2012-10-22 10:55:00
7:15 AM,54.9,47.5,76,30.05,10.0,SSE,3.5,-,N/A,,Mostly Cloudy,150,2012-10-22 11:15:00
7:55 AM,55.9,48.0,75,30.06,10.0,SSE,4.6,-,N/A,,Overcast,150,2012-10-22 11:55:00
8:15 AM,56.7,48.2,73,30.06,10.0,SSE,5.8,-,N/A,,Overcast,150,2012-10-22 12:15:00
8:35 AM,56.5,48.2,74,30.07,10.0,SSE,4.6,-,N/A,,Scattered Clouds,160,2012-10-22 12:35:00
8:55 AM,57.4,48.4,72,30.08,10.0,SSE,4.6,-,N/A,,Mostly Cloudy,150,2012-10-22 12:55:00
10:35 AM,66.7,49.8,54,30.06,10.0,South,8.1,-,N/A,,Clear,190,2012-10-22 14:35:00
10:55 AM,68.2,49.6,51,30.07,10.0,South,10.4,-,N/A,,Clear,190,2012-10-22 14:55:00
11:15 AM,70.0,50.0,49,30.06,10.0,South,10.4,-,N/A,,Clear,180,2012-10-22 15:15:00
11:35 AM,70.2,50.0,49,30.05,10.0,South,10.4,-,N/A,,Clear,190,2012-10-22 15:35:00
11:55 AM,71.2,50.7,48,30.06,10.0,South,8.1,-,N/A,,Clear,190,2012-10-22 15:55:00
12:15 PM,71.6,50.9,48,30.06,10.0,South,8.1,-,N/A,,Clear,190,2012-10-22 16:15:00
12:35 PM,73.0,51.6,47,30.06,10.0,South,12.7,17.3,N/A,,Clear,190,2012-10-22 16:35:00
12:55 PM,72.7,51.8,48,30.07,10.0,South,8.1,-,N/A,,Clear,190,2012-10-22 16:55:00
1:15 PM,74.3,52.2,46,30.06,10.0,SSW,8.1,-,N/A,,Clear,210,2012-10-22 17:15:00
1:35 PM,74.3,52.7,47,30.06,10.0,South,8.1,-,N/A,Thunderstorm,Scattered Clouds,190,2012-10-22 17:35:00
1:55 PM,74.3,53.4,48,30.06,10.0,SSW,6.9,-,N/A,,Mostly Cloudy,210,2012-10-22 17:55:00
2:15 PM,73.9,54.0,50,30.06,10.0,SSW,9.2,-,N/A,Thunderstorm,Overcast,210,2012-10-22 18:15:00
2:35 PM,73.4,54.5,51,30.07,10.0,SW,8.1,-,N/A,,Overcast,220,2012-10-22 18:35:00
2:55 PM,72.5,55.0,54,30.10,10.0,WNW,11.5,21.9,N/A,Thunderstorm,Overcast,290,2012-10-22 18:55:00
3:15 PM,67.1,57.2,70,30.10,10.0,WNW,9.2,-,N/A,Rain-Thunderstorm,Light Thunderstorms and Rain,300,2012-10-22 19:15:00
3:35 PM,65.1,58.6,79,30.08,10.0,NW,3.5,-,0.01,,Overcast,320,2012-10-22 19:35:00
3:55 PM,65.3,59.0,80,30.06,10.0,Calm,Calm,-,0.01,Rain,Light Rain,0,2012-10-22 19:55:00
4:15 PM,64.9,59.0,81,29.99,10.0,SE,16.1,20.7,N/A,,Light Drizzle,130,2012-10-22 20:15:00
4:35 PM,65.3,58.5,78,29.99,10.0,ESE,4.6,-,N/A,,Scattered Clouds,110,2012-10-22 20:35:00
4:55 PM,66.9,58.3,74,30.00,10.0,South,4.6,-,N/A,,Clear,170,2012-10-22 20:55:00
5:15 PM,66.9,58.5,74,29.99,10.0,South,6.9,-,N/A,,Clear,170,2012-10-22 21:15:00
5:35 PM,67.6,58.1,71,29.98,10.0,SSE,8.1,-,N/A,,Clear,150,2012-10-22 21:35:00
6:15 PM,68.4,56.5,66,29.97,10.0,SSE,8.1,-,N/A,,Clear,150,2012-10-22 22:15:00
6:35 PM,68.7,55.4,62,29.98,10.0,SSE,5.8,-,N/A,,Clear,150,2012-10-22 22:35:00
6:55 PM,68.0,54.5,62,29.97,10.0,SSE,6.9,-,N/A,,Scattered Clouds,150,2012-10-22 22:55:00
7:15 PM,68.4,53.8,60,29.99,10.0,SE,4.6,-,N/A,,Mostly Cloudy,140,2012-10-22 23:15:00
7:35 PM,67.1,53.6,62,29.98,10.0,SSE,6.9,-,N/A,,Mostly Cloudy,150,2012-10-22 23:35:00
7:55 PM,67.5,53.2,60,29.98,10.0,ESE,3.5,-,N/A,,Mostly Cloudy,120,2012-10-22 23:55:00
8:35 PM,65.1,52.7,64,29.98,10.0,SSE,5.8,-,N/A,,Scattered Clouds,160,2012-10-23 00:35:00
9:35 PM,64.8,52.2,64,29.99,10.0,South,5.8,-,N/A,,Scattered Clouds,170,2012-10-23 01:35:00
9:55 PM,64.4,52.0,64,29.99,10.0,South,4.6,-,N/A,,Scattered Clouds,170,2012-10-23 01:55:00
10:15 PM,61.5,51.4,69,29.99,10.0,South,3.5,-,N/A,,Scattered Clouds,180,2012-10-23 02:15:00
10:55 PM,64.4,52.7,66,29.99,10.0,South,5.8,-,N/A,,Overcast,170,2012-10-23 02:55:00
11:35 PM,65.1,52.7,64,29.99,10.0,South,6.9,-,N/A,,Overcast,190,2012-10-23 03:35:00